ARIANE 2 DEB, 28565

Orbit data source: Space-Track

ARIANE 2 DEB, 28565 is space debris in HEO originally from a launch on Fri, 27 Jan 1989 UTC launched from the French Guiana (FRGUI). Debris objects in space refer to the collection of defunct objects orbiting the Earth. Examples of debris include non-operational satellites, rocket bodies, and fragments generated from explosions, collisions, or faulty payload assembly.

Loading next visibility...
Identifier
28565, 1989-006AG
Orbit
HEO
Country
Flag of FRFR
Related business
Manufacturer
EADS/LV
Mission
Spacecraft
Bus & Motor
Unknown
Mass
Unknown
Launch date (UTC)
1989-01-27 (37 years ago)
Launch vehicle
Unknown
Launch site
French Guiana (FRGUI)
Object type
Payload
Rocket body
Debris
Shape & HBR
Unknown shape, 0.3 m
Radar Cross Section
Medium (>0.1 m² and <1 m²)

Expand to show TLE details & history
Last TLE update: 5 days ago

TLE from 5 days ago
0 ARIANE 2 DEB
1 28565U 89006AG  26090.94033964 -.00000042  00000-0  53059-3 0  9996
2 28565   8.6455 338.0399 7083763 273.0016  15.1091  2.39487018188752
Epoch: 2026-03-31T22:34Z
TLE epoch observation values (Epoch: 2026-03-31T22:34:05.344Z)
Latitude
0.00046°
Longitude
170.12094°
Altitude
4,982.767 km
Speed
7.299 km/s
True Right ascension
22h 31m 48s
True Declination
0° 00' 02"
Sunlit
Object was in daylight at epoch
Visualization orbit readout
Latitude
Unknown
Longitude
Unknown
Altitude
Unknown
Speed
Unknown
Apparent Right ascension
Unknown
Apparent Declination
Unknown
Sunlit
N/A
Visualization observer readout
Local Sidereal Time
22:18:48
Azimuth
Unknown
Elevation
Unknown
Doppler factor
Unknown
Orbital elements
Apogee altitude
33,945.407 km
Perigee altitude
505.183 km
Semi-major axis
23,603.432 km
Eccentricity
0.70838
Inclination
8.6455°
RAAN
338.0399°
Arg. of periapsis
273.0016°
True anomaly
86.62208°
Mean anomaly
15.1091°
Eccentric anomaly
42.56122°
Mean motion
0.59852 °/min
Orbital period
601.48 mins
BSTAR
0.00053059
Loading maneuver chart data...
Computing Atmospheric mass density...
Loading historical data...
Loading historical data...
Loading historical data...
Loading historical data...
Loading historical data...
Loading historical data...
Loading historical data...

Documentation

Showing up to 5 results
|